Content
SEND FEEDBACK

Daily
Averages
Monthly
Summary
United States of America

ROBSON, LOUISIANA


Home > North America > United States > Louisiana
Elevation: 160 feet     Latitude: 32 21N     Longitude: 093 39W

WEATHER
 
SELECT A DAY
Number of Records: 195,128;   Date Range: 1/3/95 - 10/19/14
 
SHARE

PRINT THIS DATA

[ ← Previous Day ]
WEATHER ALMANAC - FEBRUARY 13, 2013
[ Next Day → ]
[ °C ]   °F
Weather ElementAverageHighLow
Temperature44.3 °F49.1 °F (2:58 pm)36.1 °F (9:58 pm)
Dewpoint37.7 °F45 °F (12:58 am)34.2 °F (9:58 pm)
Humidity78.4 %96 % (11:58 pm)61 % (2:58 pm)
Barometer30.05 in30.13 in (10:58 am)29.92 in (12:58 am)
Wind Speed9.1 mph20.7 mph (6:58 am)
Wind Gust18.4 mph (10:58 am)
Weather ElementAverage
Visibility10 mi
Wind DirectionW (275.2 °)

Weather ElementTotal
Precipitation---
Heating Degree Days22.4 (Base 65)
Averaged from 29 records on February 13, 2013
WEATHER CONDITIONS BREAKOUT
WIND DIRECTION BREAKOUT
WEATHER BY HOUR - FEBRUARY 13, 2013
[ °C ]   °F
Local TimeTemperatureDewpointHumidityBarometerVisibilityWind DirectionWind SpeedGust SpeedPrecipitationEventsConditions
12:58 AM46.8 °F45.0 °F93 %29.92 in10.0 miNW (310°)16.1 mphOvercast
1:58 AM46.0 °F44.1 °F93 %29.94 in10.0 miNW (310°)13.8 mphOvercast
2:26 AM44.6 °F41.0 °F87 %29.93 in10.0 miNW (310°)15.0 mphOvercast
2:58 AM45.7 °F42.1 °F87 %29.96 in10.0 miNW (310°)11.5 mphOvercast
3:13 AM44.6 °F41.0 °F87 %29.96 in10.0 miNW (310°)10.4 mphOvercast
3:58 AM45.0 °F41.2 °F87 %29.98 in10.0 miNW (320°)13.8 mphOvercast
4:58 AM45.0 °F40.6 °F85 %30.01 in10.0 miWNW (300°)6.9 mphOvercast
5:58 AM44.4 °F39.7 °F84 %30.02 in10.0 miNW (320°)9.2 mphOvercast
6:58 AM42.6 °F37.2 °F81 %30.05 in10.0 miNNW (340°)20.7 mphOvercast
7:58 AM43.0 °F37.4 °F81 %30.07 in10.0 miNNW (340°)11.5 mphMostly Cloudy
8:58 AM43.9 °F37.0 °F77 %30.11 in10.0 miNW (310°)9.2 mphMostly Cloudy
9:58 AM44.6 °F36.7 °F74 %30.12 in10.0 miNorth (10°)10.4 mphOvercast
10:58 AM45.9 °F36.7 °F70 %30.13 in10.0 miNorth (360°)11.5 mph18.4 mphOvercast
11:58 AM46.8 °F37.0 °F69 %30.11 in10.0 miNNW (330°)10.4 mphMostly Cloudy
12:58 PM47.5 °F37.4 °F68 %30.10 in10.0 miNW (320°)12.7 mphMostly Cloudy
1:58 PM48.7 °F36.9 °F64 %30.07 in10.0 miNNW (340°)9.2 mphMostly Cloudy
2:15 PM48.2 °F37.4 °F66 %30.05 in10.0 miNW (310°)11.5 mphMostly Cloudy
2:58 PM49.1 °F36.3 °F61 %30.07 in10.0 miNW (310°)8.1 mphMostly Cloudy
3:58 PM47.8 °F36.0 °F63 %30.07 in10.0 miNNW (330°)8.1 mphOvercast
4:53 PM48.2 °F35.6 °F62 %30.06 in10.0 miNW (320°)8.1 mphMostly Cloudy
4:56 PM48.2 °F35.6 °F62 %30.06 in10.0 miNW (310°)6.9 mphMostly Cloudy
5:46 PM46.4 °F35.6 °F66 %30.07 in10.0 miWNW (300°)5.8 mphPartly Cloudy
5:58 PM45.3 °F34.9 °F67 %30.08 in10.0 miWNW (290°)3.5 mphClear
6:58 PM41.5 °F34.5 °F76 %30.07 in10.0 miSSE (150°)2.3 mphClear
7:58 PM39.2 °F35.6 °F87 %30.07 in10.0 miSouth (170°)3.5 mphClear
8:58 PM36.5 °F34.7 °F93 %30.09 in10.0 miSSE (160°)3.5 mphClear
9:58 PM36.1 °F34.2 °F93 %30.12 in10.0 miSouth (180°)2.3 mphClear
10:58 PM37.0 °F35.6 °F95 %30.10 in10.0 miSSE (150°)3.5 mphClear
11:58 PM36.5 °F35.4 °F96 %30.10 in10.0 miSSE (160°)3.5 mphClear
Hourly data recorded from KBAD, located miles away from Robson, Louisiana







STORIES FROM OUR PARTNERS